Time,TemperatureF,DewpointF,PressureIn,WindDirection,WindDirectionDegrees,WindSpeedMPH,WindSpeedGustMPH,Humidity,HourlyPrecipIn,Conditions,Clouds,dailyrainin,SoftwareType,DateUTC
2013-07-04 00:08:00,58.5,58.0,30.19,SSE,159,0.0,1.0,99,0.00,,,0.00,weatherlink.com 1.10,2013-07-04 04:08:00,
2013-07-04 00:23:00,58.5,58.0,30.19,SSE,159,0.0,2.0,99,0.00,,,0.00,weatherlink.com 1.10,2013-07-04 04:23:00,
2013-07-04 00:38:00,59.0,59.0,30.19,SSE,159,1.0,2.0,100,0.00,,,0.00,weatherlink.com 1.10,2013-07-04 04:38:00,
2013-07-04 00:53:00,59.4,59.0,30.19,SSE,159,0.0,0.0,100,0.00,,,0.00,weatherlink.com 1.10,2013-07-04 04:53:00,
2013-07-04 01:08:00,59.6,60.0,30.19,SSE,159,0.0,0.0,100,0.00,,,0.00,weatherlink.com 1.10,2013-07-04 05:08:00,
2013-07-04 01:23:00,59.9,60.0,30.18,SSE,159,0.0,2.0,100,0.00,,,0.00,weatherlink.com 1.10,2013-07-04 05:23:00,
2013-07-04 01:38:00,60.2,60.0,30.18,SSE,159,0.0,1.0,100,0.00,,,0.00,weatherlink.com 1.10,2013-07-04 05:38:00,
2013-07-04 01:53:00,60.0,60.0,30.17,SSE,159,0.0,2.0,100,0.00,,,0.00,weatherlink.com 1.10,2013-07-04 05:53:00,
2013-07-04 02:08:00,60.1,60.0,30.18,SSE,159,0.0,1.0,100,0.00,,,0.00,weatherlink.com 1.10,2013-07-04 06:08:00,
2013-07-04 02:23:00,60.1,60.0,30.18,SSE,159,0.0,1.0,100,0.00,,,0.00,weatherlink.com 1.10,2013-07-04 06:23:00,
2013-07-04 02:38:00,60.3,60.0,30.18,SSE,159,0.0,2.0,100,0.00,,,0.00,weatherlink.com 1.10,2013-07-04 06:38:00,
2013-07-04 02:53:00,60.4,60.0,30.17,SSE,159,0.0,2.0,100,0.00,,,0.00,weatherlink.com 1.10,2013-07-04 06:53:00,
2013-07-04 03:08:00,60.4,60.0,30.17,SSE,159,0.0,2.0,100,0.00,,,0.00,weatherlink.com 1.10,2013-07-04 07:08:00,
2013-07-04 03:23:00,60.4,60.0,30.16,SSE,159,0.0,2.0,100,0.00,,,0.00,weatherlink.com 1.10,2013-07-04 07:23:00,
2013-07-04 03:38:00,60.5,61.0,30.14,SSE,159,0.0,0.0,100,0.00,,,0.00,weatherlink.com 1.10,2013-07-04 07:38:00,
2013-07-04 03:53:00,59.6,60.0,30.14,SSE,159,1.0,2.0,100,0.00,,,0.00,weatherlink.com 1.10,2013-07-04 07:53:00,
2013-07-04 04:08:00,59.4,59.0,30.15,SSE,159,0.0,2.0,100,0.00,,,0.00,weatherlink.com 1.10,2013-07-04 08:08:00,
2013-07-04 04:23:00,59.4,59.0,30.14,SSE,159,0.0,1.0,100,0.00,,,0.00,weatherlink.com 1.10,2013-07-04 08:23:00,
2013-07-04 04:38:00,59.6,60.0,30.15,SSE,159,0.0,1.0,100,0.00,,,0.00,weatherlink.com 1.10,2013-07-04 08:38:00,
2013-07-04 04:53:00,59.7,60.0,30.16,SSE,159,0.0,0.0,100,0.00,,,0.00,weatherlink.com 1.10,2013-07-04 08:53:00,
2013-07-04 05:08:00,59.8,60.0,30.16,SSE,159,0.0,1.0,100,0.00,,,0.00,weatherlink.com 1.10,2013-07-04 09:08:00,
2013-07-04 05:23:00,60.0,60.0,30.16,SSE,159,0.0,1.0,100,0.00,,,0.00,weatherlink.com 1.10,2013-07-04 09:23:00,
2013-07-04 05:38:00,60.0,60.0,30.16,SSE,159,1.0,1.0,100,0.00,,,0.00,weatherlink.com 1.10,2013-07-04 09:38:00,
2013-07-04 05:53:00,60.2,60.0,30.17,SSE,159,0.0,1.0,100,0.00,,,0.00,weatherlink.com 1.10,2013-07-04 09:53:00,
2013-07-04 06:08:00,60.2,60.0,30.16,SSE,159,0.0,1.0,100,0.00,,,0.00,weatherlink.com 1.10,2013-07-04 10:08:00,
2013-07-04 06:15:00,60.1,60.1,30.16,SSE,159,0.0,2.0,100,0.00,,,0.00,Wunderground v.1.15,2013-07-04 10:15:00,
2013-07-04 06:20:00,60.1,60.1,30.16,SSE,159,0.0,2.0,100,0.00,,,0.00,Wunderground v.1.15,2013-07-04 10:20:00,
2013-07-04 06:38:00,60.0,60.0,30.17,SSE,159,0.0,1.0,100,0.00,,,0.00,weatherlink.com 1.10,2013-07-04 10:38:00,
2013-07-04 06:53:00,59.9,60.0,30.17,SSE,159,1.0,3.0,100,0.00,,,0.00,weatherlink.com 1.10,2013-07-04 10:53:00,
2013-07-04 07:08:00,59.9,60.0,30.17,SSE,159,0.0,2.0,100,0.00,,,0.00,weatherlink.com 1.10,2013-07-04 11:08:00,
2013-07-04 07:23:00,59.9,60.0,30.17,SSE,159,0.0,1.0,100,0.00,,,0.00,weatherlink.com 1.10,2013-07-04 11:23:00,
2013-07-04 07:38:00,60.0,60.0,30.17,SSE,159,0.0,1.0,100,0.00,,,0.00,weatherlink.com 1.10,2013-07-04 11:38:00,
2013-07-04 07:53:00,59.8,60.0,30.17,SSE,159,0.0,2.0,100,0.00,,,0.00,weatherlink.com 1.10,2013-07-04 11:53:00,
2013-07-04 08:08:00,59.9,60.0,30.17,SSE,159,1.0,3.0,100,0.00,,,0.00,weatherlink.com 1.10,2013-07-04 12:08:00,
2013-07-04 08:23:00,60.0,60.0,30.17,SSE,159,1.0,2.0,100,0.00,,,0.00,weatherlink.com 1.10,2013-07-04 12:23:00,
2013-07-04 08:39:00,60.6,61.0,30.17,SSE,159,1.0,2.0,100,0.00,,,0.00,weatherlink.com 1.10,2013-07-04 12:39:00,
2013-07-04 08:54:00,60.9,61.0,30.18,SSE,159,0.0,2.0,100,0.00,,,0.00,weatherlink.com 1.10,2013-07-04 12:54:00,
2013-07-04 09:09:00,61.0,61.0,30.18,SSE,159,0.0,2.0,100,0.00,,,0.00,weatherlink.com 1.10,2013-07-04 13:09:00,
2013-07-04 09:24:00,61.0,61.0,30.18,SSE,159,0.0,1.0,100,0.00,,,0.00,weatherlink.com 1.10,2013-07-04 13:24:00,
2013-07-04 09:39:00,60.7,61.0,30.19,SSE,159,1.0,3.0,100,0.00,,,0.00,weatherlink.com 1.10,2013-07-04 13:39:00,
2013-07-04 09:54:00,60.9,61.0,30.19,SSE,159,0.0,1.0,100,0.00,,,0.00,weatherlink.com 1.10,2013-07-04 13:54:00,
2013-07-04 10:09:00,60.9,61.0,30.18,SSE,159,2.0,4.0,100,0.00,,,0.00,weatherlink.com 1.10,2013-07-04 14:09:00,
2013-07-04 10:24:00,61.2,61.0,30.17,SSE,159,0.0,2.0,100,0.00,,,0.00,weatherlink.com 1.10,2013-07-04 14:24:00,
2013-07-04 10:39:00,61.3,61.0,30.18,SSE,159,0.0,2.0,100,0.00,,,0.00,weatherlink.com 1.10,2013-07-04 14:39:00,
2013-07-04 10:54:00,62.3,62.0,30.19,SSE,159,0.0,1.0,100,0.00,,,0.00,weatherlink.com 1.10,2013-07-04 14:54:00,
2013-07-04 11:09:00,62.9,63.0,30.19,SSE,159,0.0,2.0,100,0.00,,,0.00,weatherlink.com 1.10,2013-07-04 15:09:00,
2013-07-04 11:24:00,63.9,64.0,30.18,SSE,159,0.0,1.0,100,0.00,,,0.00,weatherlink.com 1.10,2013-07-04 15:24:00,
2013-07-04 11:39:00,64.9,65.0,30.18,SSE,159,0.0,2.0,100,0.00,,,0.00,weatherlink.com 1.10,2013-07-04 15:39:00,
2013-07-04 11:54:00,64.7,65.0,30.18,SSE,159,0.0,2.0,100,0.00,,,0.00,weatherlink.com 1.10,2013-07-04 15:54:00,
2013-07-04 12:09:00,64.7,65.0,30.18,SSE,159,0.0,1.0,100,0.00,,,0.00,weatherlink.com 1.10,2013-07-04 16:09:00,
2013-07-04 12:24:00,65.4,65.0,30.18,SSE,159,0.0,3.0,100,0.00,,,0.00,weatherlink.com 1.10,2013-07-04 16:24:00,
2013-07-04 12:39:00,65.0,65.0,30.18,SSE,159,0.0,3.0,100,0.00,,,0.00,weatherlink.com 1.10,2013-07-04 16:39:00,
2013-07-04 12:54:00,65.9,66.0,30.17,SSE,159,0.0,3.0,100,0.00,,,0.00,weatherlink.com 1.10,2013-07-04 16:54:00,
2013-07-04 13:09:00,66.1,66.0,30.17,SSE,159,1.0,4.0,100,0.00,,,0.00,weatherlink.com 1.10,2013-07-04 17:09:00,
2013-07-04 13:24:00,65.8,66.0,30.17,NW,316,0.0,3.0,100,0.00,,,0.00,weatherlink.com 1.10,2013-07-04 17:24:00,
2013-07-04 13:39:00,65.3,65.0,30.16,West,259,0.0,3.0,100,0.00,,,0.00,weatherlink.com 1.10,2013-07-04 17:39:00,
2013-07-04 13:54:00,65.4,65.0,30.16,SE,134,2.0,3.0,100,0.00,,,0.00,weatherlink.com 1.10,2013-07-04 17:54:00,
2013-07-04 14:09:00,65.6,66.0,30.15,SE,134,0.0,2.0,100,0.00,,,0.00,weatherlink.com 1.10,2013-07-04 18:09:00,
2013-07-04 14:24:00,65.6,66.0,30.15,SE,134,2.0,2.0,100,0.00,,,0.00,weatherlink.com 1.10,2013-07-04 18:24:00,
2013-07-04 14:39:00,66.0,66.0,30.16,SE,134,0.0,3.0,100,0.00,,,0.00,weatherlink.com 1.10,2013-07-04 18:39:00,
2013-07-04 14:54:00,65.9,66.0,30.15,SE,146,1.0,3.0,100,0.00,,,0.00,weatherlink.com 1.10,2013-07-04 18:54:00,
2013-07-04 15:09:00,66.3,66.0,30.14,SE,146,0.0,1.0,100,0.00,,,0.00,weatherlink.com 1.10,2013-07-04 19:09:00,
2013-07-04 15:24:00,66.7,67.0,30.14,SE,146,1.0,1.0,100,0.00,,,0.00,weatherlink.com 1.10,2013-07-04 19:24:00,
2013-07-04 15:39:00,66.4,66.0,30.14,SE,146,1.0,2.0,100,0.00,,,0.00,weatherlink.com 1.10,2013-07-04 19:39:00,
2013-07-04 15:54:00,65.4,65.0,30.13,SE,134,0.0,3.0,99,0.01,,,0.01,weatherlink.com 1.10,2013-07-04 19:54:00,